Regional Weather Roundup
Issued by NWS Spokane, WA

Home | Current Version | Previous Version | Text Only | Print | Product List | Glossary On
Versions: 1 2 3 4 5 6 7 8 9 10 11 12 13 14 15 16 17 18 19 20 21 22 23 24 25 26 27 28 29 30 31 32 33 34 35 36 37 38 39 40 41 42 43 44 45 46 47 48 49 50
000
NZUS01 KOTX 110310
RWROTX
EASTERN WASHINGTON/NORTHERN IDAHO ROUNDUP
NATIONAL WEATHER SERVICE, SPOKANE WA
800 PM PDT THU JUL 10 2014

Note: "fair" indicated few or no clouds below 12,000 feet with no
significant weather and/or obstructions to visibility.

...NORTHEAST WASHINGTON AND NORTHERN IDAHO PANHANDLE...

CITY           SKY/WX    TMP DP  RH WIND       PRES   REMARKS
SPOKANE INTL   PTCLDY    88  31  13 CALM      29.83R
SPOKANE DOWNTO CLEAR     84  42  22 N3        29.81R
COEUR D ALENE  CLEAR     82  46  28 E6        29.83R
DEER PARK      CLEAR     83  54  36 CALM      29.83R
SANDPOINT      CLEAR     72  55  56 W3        29.83S

...SOUTHEAST WASHINGTON AND SOUTHERN IDAHO PANHANDLE...

CITY           SKY/WX    TMP DP  RH WIND       PRES   REMARKS
WALLA WALLA    CLEAR     89  33  13 CALM      29.79R
PULLMAN/MOSCOW CLEAR     82  38  20 CALM      29.88R
LEWISTON       CLEAR     91  26   9 NW10      29.79R
LOWELL           N/A     73  58  59 N3        29.79R

...COLUMBIA BASIN...

CITY           SKY/WX    TMP DP  RH WIND       PRES   REMARKS
EPHRATA        CLEAR     92  22   8 SW5       29.77R
MOSES LAKE     CLEAR     92  37  14 S6        29.77R
TRI CITIES     CLEAR     93  38  14 E6        29.73R
HERMISTON      CLEAR     88  52  29 E5        29.74R
PENDLETON      CLEAR     91  17   6 W5        29.80R

...EAST SLOPES CASCADES...

CITY           SKY/WX    TMP DP  RH WIND       PRES   REMARKS
THE DALLES     CLEAR     84  55  36 NW17      29.75R
YAKIMA         CLEAR     94  32  11 N7        29.76R
ELLENSBURG     CLEAR     82  43  25 NW20G29   29.83R
WENATCHEE      CLEAR     93  34  12 NW13      29.76R
OMAK           CLEAR     87  38  17 N15       29.81R

...SOUTHERN BRITISH COLUMBIA...

CITY           SKY/WX    TMP DP  RH WIND       PRES   REMARKS
PENTICTON      CLEAR     82  39  21 N10       29.85R
CASTLEGAR      PTCLDY    82  43  24 N5        29.82R
CRANBROOK      PTCLDY    79  30  17 N5        29.86R

...WESTERN MONTANA...

CITY           SKY/WX    TMP DP  RH WIND       PRES   REMARKS
MISSOULA       CLEAR     82  37  20 NW7       29.87R

...NEIGHBORING CITIES...

CITY           SKY/WX    TMP DP  RH WIND       PRES   REMARKS
SEATTLE        CLEAR     80  48  32 N8        29.91R
CALGARY        MOCLDY    64  43  45 N13G18    30.04R



USA.gov is the U.S. government's official web portal to all federal, state and local government web resources and services.